Simultaneous Nadir Overpasses (SNOs) Predictions

Prediction of SNOs between AQUA and NPP Satellite Orbit:

Table of predicted SNOs for the next 14.0 days since TLE Epoch: 11/28/2020
Index Date (AQUA) Time (AQUA) Lat,Lon (AQUA) SZA (AQUA ) Date (NPP) Time (NPP) Lat,Lon (NPP) SZA (NPP ) Distance(km) Time Diff (sec)
1 11/29/2020 21:48:55 75.03, 89.08 118.70 11/29/2020 21:47:43 75.03, 89.05 118.78 0.94 72
2 11/29/2020 22:37:56 -76.32, -99.52 62.64 11/29/2020 22:38:01 -76.32, -99.49 62.65 0.56 5
3 12/02/2020 14:05:13 75.60,-153.49 118.58 12/02/2020 14:04:24 75.60,-153.44 118.61 1.31 49
4 12/02/2020 14:54:24 -76.38, 16.57 62.25 12/02/2020 14:54:53 -76.37, 16.48 62.26 2.74 29
5 12/05/2020 06:21:39 75.75, -37.16 118.82 12/05/2020 06:21:14 75.75, -37.21 118.86 1.29 25
6 12/05/2020 07:10:42 -76.91, 134.28 62.43 12/05/2020 07:11:34 -76.91, 134.32 62.48 0.83 52
7 12/07/2020 21:51:57 -65.23,-106.02 50.97 12/07/2020 21:50:44 -65.37,-107.06 50.59 50.53 73
8 12/07/2020 22:37:54 76.43, 80.84 118.46 12/07/2020 22:37:52 76.44, 80.94 118.44 2.95 2
9 12/07/2020 23:25:50 -80.23, -91.22 66.30 12/07/2020 23:27:04 -80.02, -90.52 66.46 26.76 74
10 12/10/2020 14:05:19 -75.29, 25.66 60.04 12/10/2020 14:04:25 -75.29, 25.60 59.97 1.87 54
